This is the latest recevied weather packets stored in our database for station/object NC4M. If no packets are shown the sender has not sent any weather packets the latest 10 day(s).
| Time | Temp. | Humidity | Pressure | Rain* | Wind** | Luminosity | Snow |
|---|---|---|---|---|---|---|---|
| 1788047301 | 27.78° C | 59% | 1017.3 hPa | 0 mm | - | 54 W/m² | - |
| 1788046996 | 27.78° C | 58% | 1017.1 hPa | 0 mm | - | 60 W/m² | - |
| 1788046695 | 27.78° C | 58% | 1017.3 hPa | 0 mm | - | 62 W/m² | - |
| 1788046390 | 28.33° C | 57% | 1017.5 hPa | 0 mm | - | 66 W/m² | - |
| 1788046088 | 28.33° C | 57% | 1017.1 hPa | 0 mm | - | 68 W/m² | - |
| 1788045783 | 28.33° C | 56% | 1017.3 hPa | 0 mm | - | 70 W/m² | - |
| 1788045478 | 28.33° C | 56% | 1017.4 hPa | 0 mm | - | 71 W/m² | - |
| 1788045175 | 28.89° C | 54% | 1017.4 hPa | 0 mm | - | 71 W/m² | - |
| 1788044874 | 28.89° C | 54% | 1017.1 hPa | 0 mm | - | 73 W/m² | - |
| 1788044569 | 28.89° C | 52% | 1017.3 hPa | 0 mm | - | 69 W/m² | - |
| 1788044268 | 28.89° C | 51% | 1017 hPa | 0 mm | - | 69 W/m² | - |
| 1788043964 | 29.44° C | 50% | 1017.3 hPa | 0 mm | - | 73 W/m² | - |
| 1788043659 | 29.44° C | 51% | 1017 hPa | 0 mm | - | 71 W/m² | - |
| 1788043354 | 29.44° C | 53% | 1017 hPa | 0 mm | - | 132 W/m² | - |
| 1788043054 | 30° C | 50% | 1017 hPa | 0 mm | - | 73 W/m² | - |
| 1788042749 | 30° C | 50% | 1016.9 hPa | 0 mm | - | 75 W/m² | - |
| 1788042448 | 30.56° C | 51% | 1017 hPa | 0 mm | - | 100 W/m² | - |
| 1788042144 | 30.56° C | 48% | 1017.4 hPa | 0 mm | - | 97 W/m² | - |
| 1788041840 | 31.11° C | 46% | 1017.5 hPa | 0 mm | - | 186 W/m² | - |
| 1788041539 | 31.11° C | 44% | 1017.1 hPa | 0 mm | - | 338 W/m² | - |
| 1788041234 | 30.56° C | 47% | 1017.4 hPa | 0 mm | - | 344 W/m² | - |
| 1788040933 | 30.56° C | 45% | 1017.4 hPa | 0 mm | - | 386 W/m² | - |
| 1788040631 | 31.11° C | 45% | 1017.5 hPa | 0 mm | - | 174 W/m² | - |
| 1788040328 | 31.11° C | 44% | 1017.6 hPa | 0 mm | - | 312 W/m² | - |
| 1788040027 | 31.11° C | 44% | 1017.8 hPa | 0 mm | - | 277 W/m² | - |
* Rain latest hour (hover to see other rain measurements)
** Current wind speed in m/s (hover to see current wind gust speed)